Farmington, MO

7:17 AM CST on December 14, 2019 (GMT -0600)
Farmington Regional

Weather History for KFAM - October, 2019

Change the Weather History Date:

Friday, October 11, 2019

  Actual Average Record
Temperature  
Mean Temperature 53 °F -  
Max Temperature 69 °F 67 °F 82 °F (1997)
Min Temperature 35 °F 45 °F 28 °F (2000)
Degree Days  
Heating Degree Days 12    
Growing Degree Days 3 (Base 50)    
Moisture  
Dew Point 53 °F    
Average Humidity 94    
Maximum Humidity 100    
Minimum Humidity 66    
Precipitation  
Precipitation 2.60 in - - ()
Sea Level Pressure  
Sea Level Pressure 30.03 in    
Wind  
Wind Speed 8 mph (WNW)    
Max Wind Speed 15 mph    
Max Gust Speed 25 mph    
Visibility 8 miles    
Events Rain , Thunderstorm    
Averages and records for this station are not official NWS values.
T = Trace of Precipitation, MM = Missing Value Source: NWS Daily Summary

Daily Weather History Graph

Daily Weather History Graph

Search for Another Location

Airport or City:

Astronomy

Oct. 11, 2019 Rise Set
Actual Time 7:06 AM CDT 6:30 PM CDT
Civil Twilight 6:39 AM CDT 6:56 PM CDT
Nautical Twilight 6:09 AM CDT 7:26 PM CDT
Astronomical Twilight 5:39 AM CDT 7:57 PM CDT
Moon 5:56 PM CDT (10/11) 4:50 AM CDT (10/11)
Length of Visible Light 12h 16m
Length of Day
11h 24m
Waxing Gibbous, 96% of the Moon is Illuminated
Oct 11
Waxing Gibbous
Oct 13
Full
Oct 21
Last Quarter
Oct 27
New
Nov 4
First Quarter

Hourly Weather History & Observations

Time (CDT) Temp. Windchill Dew Point Humidity Pressure Visibility Wind Dir Wind Speed Gust Speed Precip Events Conditions
12:07 AM 68.0 °F - 68.0 °F 100% 29.94 in 10.0 mi South 11.5 mph - 0.01 in Rain , Thunderstorm Thunderstorms and Rain
12:21 AM 66.2 °F - 64.4 °F 94% 29.94 in 10.0 mi South 10.4 mph - 0.03 in Rain , Thunderstorm Rain
12:49 AM 64.4 °F - 64.4 °F 100% 29.93 in 10.0 mi South 3.5 mph - 0.04 in Rain Light Rain
12:56 AM 64.9 °F - 64.0 °F 97% 29.94 in 10.0 mi Calm Calm - 0.04 in Rain Light Rain
1:11 AM 64.4 °F - 64.4 °F 100% 29.92 in 6.0 mi SSE 6.9 mph - 0.08 in Rain , Thunderstorm Heavy Rain
1:34 AM 64.4 °F - 64.4 °F 100% 29.92 in 2.0 mi South 5.8 mph - 0.49 in Rain , Thunderstorm Heavy Rain
1:43 AM 66.2 °F - 66.2 °F 100% 29.91 in 4.0 mi West 3.5 mph - 0.55 in Rain , Thunderstorm Heavy Rain
1:48 AM 66.2 °F - 66.2 °F 100% 29.92 in 2.5 mi WSW 5.8 mph - 0.58 in Rain , Thunderstorm Heavy Rain
1:56 AM 68.0 °F - 68.0 °F 100% 29.93 in 6.0 mi SSW 6.9 mph - 0.60 in Rain , Thunderstorm Rain
2:10 AM 68.0 °F - 68.0 °F 100% 29.94 in 1.8 mi WSW 6.9 mph - 0.22 in Rain , Thunderstorm Heavy Thunderstorms and Rain
2:21 AM 69.8 °F - 68.0 °F 94% 29.92 in 3.0 mi West 3.5 mph - 0.34 in Rain , Thunderstorm Heavy Thunderstorms and Rain
2:52 AM 68.0 °F - 68.0 °F 100% 29.92 in 6.0 mi WNW 11.5 mph 16.1 mph 0.41 in Rain Rain
2:56 AM 66.9 °F - 66.9 °F 100% 29.93 in 7.0 mi NW 9.2 mph 16.1 mph 0.42 in Rain , Thunderstorm Rain
3:16 AM 64.4 °F - 64.4 °F 100% 29.92 in 4.0 mi SSE 4.6 mph - 0.27 in Rain , Thunderstorm Heavy Thunderstorms and Rain
3:46 AM 64.4 °F - 64.4 °F 100% 29.90 in 7.0 mi North 4.6 mph - 0.41 in Rain , Thunderstorm Heavy Thunderstorms and Rain
3:56 AM 64.9 °F - 64.9 °F 100% 29.93 in 2.0 mi SSW 5.8 mph - 0.63 in Rain , Thunderstorm Heavy Thunderstorms and Rain
4:11 AM 64.4 °F - 64.4 °F 100% 29.92 in 4.0 mi WNW 9.2 mph 16.1 mph 0.19 in Rain , Thunderstorm Heavy Thunderstorms and Rain
4:21 AM 64.4 °F - 64.4 °F 100% 29.93 in 2.0 mi WNW 8.1 mph 18.4 mph 0.42 in Rain , Thunderstorm Heavy Thunderstorms and Rain
4:25 AM 64.4 °F - 64.4 °F 100% 29.94 in 2.0 mi WSW 5.8 mph - 0.47 in Rain , Thunderstorm Heavy Thunderstorms and Rain
4:37 AM 64.4 °F - 64.4 °F 100% 29.92 in 2.5 mi West 5.8 mph - 0.59 in Rain , Thunderstorm Heavy Thunderstorms and Rain
4:41 AM 62.6 °F - 62.6 °F 100% 29.92 in 3.0 mi West 3.5 mph - 0.60 in Rain , Thunderstorm Heavy Thunderstorms and Rain
4:56 AM 63.0 °F - 63.0 °F 100% 29.94 in 5.0 mi Variable 3.5 mph - 0.64 in Rain , Thunderstorm Rain
5:56 AM 63.0 °F - 63.0 °F 100% 29.94 in 10.0 mi Calm Calm - 0.03 in Rain Light Rain
6:42 AM 60.8 °F - 60.8 °F 100% 29.96 in 7.0 mi NNW 12.7 mph - 0.03 in Rain Rain
6:52 AM 57.2 °F - 55.4 °F 94% 29.97 in 10.0 mi WNW 11.5 mph - 0.04 in Rain Rain
6:56 AM 57.0 °F - 55.9 °F 96% 29.99 in 8.0 mi NW 11.5 mph - 0.07 in Rain Heavy Rain
7:25 AM 51.8 °F - 51.8 °F 100% 29.99 in 10.0 mi NW 8.1 mph - 0.15 in Rain Light Rain
7:34 AM 51.8 °F - 51.8 °F 100% 30.00 in 10.0 mi WNW 11.5 mph 18.4 mph 0.15 in Rain Light Rain
7:56 AM 51.1 °F - 50.0 °F 96% 30.02 in 10.0 mi NW 11.5 mph 19.6 mph 0.16 in Rain Light Rain
8:56 AM 46.9 °F - 46.0 °F 97% 30.04 in 10.0 mi NW 12.7 mph 20.7 mph 0.01 in Rain Light Rain
9:26 AM 46.4 °F 41.5 °F 46.4 °F 100% 30.04 in 10.0 mi WNW 10.4 mph 17.3 mph 0.00 in Rain Light Rain
9:56 AM 46.9 °F - 45.0 °F 93% 30.09 in 10.0 mi NW 10.4 mph - 0.00 in   Overcast
10:07 AM 46.4 °F 40.7 °F 44.6 °F 93% 30.06 in 5.0 mi NW 12.7 mph 18.4 mph N/A   Overcast
10:34 AM 44.6 °F 38.8 °F 44.6 °F 100% 30.07 in 10.0 mi WNW 11.5 mph 19.6 mph 0.00 in Rain Light Rain
10:56 AM 45.0 °F 39.7 °F 43.0 °F 93% 30.10 in 8.0 mi NW 10.4 mph 18.4 mph 0.00 in Rain Light Rain
11:16 AM 44.6 °F 40.2 °F 42.8 °F 93% 30.08 in 7.0 mi WNW 8.1 mph - 0.00 in Rain Light Rain
12:03 PM 44.6 °F 38.8 °F 42.8 °F 93% 30.07 in 10.0 mi NW 11.5 mph - N/A   Overcast
12:56 PM 44.1 °F 37.7 °F 41.0 °F 89% 30.12 in 10.0 mi WNW 12.7 mph 16.1 mph N/A   Overcast
1:26 PM 44.6 °F 38.4 °F 39.2 °F 81% 30.10 in 10.0 mi WNW 12.7 mph 25.3 mph 0.00 in   Overcast
1:34 PM 44.6 °F 38.8 °F 39.2 °F 81% 30.10 in 10.0 mi WNW 11.5 mph 19.6 mph 0.00 in   Overcast
1:43 PM 44.6 °F 37.8 °F 39.2 °F 81% 30.11 in 10.0 mi NW 15.0 mph 21.9 mph 0.00 in   Overcast
1:56 PM 43.0 °F 36.0 °F 39.9 °F 89% 30.13 in 10.0 mi NW 13.8 mph 19.6 mph 0.00 in   Overcast
2:56 PM 45.0 °F 38.5 °F 39.9 °F 82% 30.13 in 10.0 mi NW 13.8 mph - N/A   Overcast
3:56 PM 46.0 °F 39.6 °F 37.9 °F 73% 30.15 in 10.0 mi NW 15.0 mph 19.6 mph N/A   Overcast
4:56 PM 48.0 °F - 37.0 °F 66% 30.16 in 10.0 mi NW 6.9 mph - N/A   Scattered Clouds
5:56 PM 46.0 °F 41.0 °F 35.1 °F 66% 30.18 in 10.0 mi NW 10.4 mph - N/A   Clear
6:56 PM 42.1 °F - 35.1 °F 76% 30.22 in 10.0 mi Calm Calm - N/A   Clear
7:56 PM 41.0 °F 38.0 °F 34.0 °F 76% 30.22 in 10.0 mi NW 4.6 mph - N/A   Clear
8:56 PM 39.0 °F 36.8 °F 35.1 °F 86% 30.24 in 10.0 mi WNW 3.5 mph - N/A   Clear
9:56 PM 37.0 °F - 36.0 °F 96% 30.26 in 10.0 mi Calm Calm - N/A   Clear
10:56 PM 37.0 °F - 36.0 °F 96% 30.27 in 10.0 mi Calm Calm - N/A   Clear
11:56 PM 35.1 °F - 34.0 °F 96% 30.28 in 10.0 mi Calm Calm - N/A   Clear